Flag for Romania Weather past 2 weeks in Constanța, Romania

Now
40 °F

Fog.


Feels Like: 40 °F
Forecast: 45 / 53 °F
Wind: No wind

Location: Constanta

Current Time: Feb 27, 2015 at 6:18:53 AM

Latest Report: Feb 27, 2015 at 4:00 AM


Visibility: 1 mi

Pressure: 30.08 "Hg

Humidity: 98%

Dew point: 40 °F

Location of ConstanțaLocation

Historic Weather in Constanța — Graph

°F

Constanța temperature yesterday

Maximum temperature yesterday: 57 °F (at 4:00 PM)
Minimum temperature yesterday: 40 °F (at 3:00 AM)
Average temperature yesterday: 47 °F

Past Weeks' High & Low Weather Summary

 TemperatureHumidityPressure
High57 °F (Feb 26, 4:00 PM)100% (Feb 15, 8:00 AM)30.63 "Hg (Feb 15, 8:00 AM)
Low22 °F (Feb 17, 10:00 AM)42% (Feb 17, 5:00 PM)29.76 "Hg (Feb 24, 5:00 PM)
Average36 °F86%30.20 "Hg
* Reported Feb 12 4:00 AM — Feb 27 4:00 AM, Constanța, Weather by CustomWeather, © 2015

Note: Actual official high and low records may vary slightly from our data, if they occured in-between our weather recording intervals... More about our weather records

Advertising

Constanța weather history for previous 24 hours

 ConditionsComfort  
Time TempWeatherWind HumidityBarometerVisibility
4:00 AM
Fri, Feb 27
40 °FFog.No wind98%30.08 "Hg1 mi
3:00 AM40 °FFog.N/A99%30.09 "Hg1 mi
2:00 AM40 °FClear.No wind99%30.09 "Hg6 mi
1:00 AM42 °FClear.1 mph97%30.10 "Hg6 mi
12:00 AM45 °FClear.No wind88%30.09 "Hg6 mi
10:00 PM
Thu, Feb 26
51 °FClear.1 mph79%30.10 "Hg6 mi
9:00 PM51 °FClear.2 mph77%30.09 "Hg6 mi
8:00 PM51 °FPassing clouds.1 mph80%30.09 "Hg6 mi
7:00 PM53 °FPassing clouds.1 mph76%30.07 "Hg6 mi
6:00 PM53 °FPassing clouds.1 mph78%30.06 "Hg6 mi
5:00 PM55 °FPartly sunny.1 mph73%30.05 "Hg6 mi
4:00 PM57 °FPartly sunny.1 mph67%30.04 "Hg6 mi
3:00 PM52 °FPartly sunny.2 mph78%30.05 "Hg6 mi
2:00 PM52 °FScattered clouds.3 mph80%30.04 "Hg6 mi
1:00 PM50 °FScattered clouds.2 mph83%30.06 "Hg6 mi
12:00 PM45 °FFog.2 mph93%30.06 "Hg2 mi
11:00 AM41 °FFog.5 mph99%30.06 "Hg1 mi
10:00 AM46 °FFog.2 mph96%30.05 "Hg2 mi
9:00 AM44 °FFog.1 mph100%30.04 "Hg1 mi
8:00 AM42 °FFog.No wind100%30.03 "Hg1 mi
7:00 AM40 °FFog.N/A100%30.02 "Hg1 mi
Weather by CustomWeather, © 2015

See weather overviewHow to use our weather pages